KE0TNI-13 Weather Reports


time (UTC)temp
C
wind
direction
speed
KPH
gust
KPH
rain 1hr
cm
rain 24hr
cm
rain mn
cm
humidity
%
barometer
mb
20260906231143 25 224 4.8 6.4 0.00 0.00 0.00 40 1025.8
20260906230641 25 265 4.8 4.8 0.00 0.00 0.00 40 1025.5
20260906230136 25 256 0.0 6.4 0.00 0.00 0.00 38 1025.5
20260906225636 25 169 4.8 14.5 0.00 0.00 0.00 37 1025.9
20260906225133 25 162 4.8 4.8 0.00 0.00 0.00 38 1025.7
20260906224632 25 192 6.4 8.0 0.00 0.00 0.00 39 1025.8
20260906224129 25 225 3.2 9.7 0.00 0.00 0.00 39 1025.9
20260906223625 24 216 4.8 6.4 0.00 0.00 0.00 42 1025.8
20260906223125 24 209 1.6 8.0 0.00 0.00 0.00 41 1026.1
20260906222623 24 245 3.2 8.0 0.00 0.00 0.00 42 1025.9
20260906222122 24 183 8.0 14.5 0.00 0.00 0.00 42 1026.1
20260906221620 23 240 4.8 8.0 0.00 0.00 0.00 44 1026.1
20260906221115 22 228 3.2 4.8 0.00 0.00 0.00 47 1026.1
20260906220611 23 279 1.6 9.7 0.00 0.00 0.00 45 1026.5
20260906220106 23 201 4.8 8.0 0.00 0.00 0.00 44 1026.6
20260906215605 23 150 4.8 8.0 0.00 0.00 0.00 42 1026.5
20260906215103 23 192 3.2 6.4 0.00 0.00 0.00 43 1026.3
20260906214601 23 208 3.2 6.4 0.00 0.00 0.00 42 1026.3
20260906214057 24 207 6.4 8.0 0.00 0.00 0.00 42 1026.8
20260906213556 24 202 6.4 9.7 0.00 0.00 0.00 40 1026.5
20260906213051 25 138 6.4 9.7 0.00 0.00 0.00 40 1026.8
20260906212543 23 183 6.4 9.7 0.00 0.00 0.00 42 1026.7
20260906212040 23 177 6.4 9.7 0.00 0.00 0.00 41 1026.8
20260906211539 23 204 4.8 9.7 0.00 0.00 0.00 42 1026.8
20260906211034 23 169 4.8 9.7 0.00 0.00 0.00 41 1026.8
20260906210530 24 181 4.8 14.5 0.00 0.00 0.00 40 1026.6
20260906210029 25 172 4.8 8.0 0.00 0.00 0.00 38 1026.7
20260906205525 23 196 3.2 9.7 0.00 0.00 0.00 41 1026.8
20260906205021 24 146 3.2 11.3 0.00 0.00 0.00 41 1027.1
20260906204521 25 181 3.2 8.0 0.00 0.00 0.00 38 1026.8
20260906204021 25 228 6.4 9.7 0.00 0.00 0.00 39 1027.1
20260906203515 25 199 4.8 9.7 0.00 0.00 0.00 40 1027.1
20260906203010 25 188 4.8 14.5 0.00 0.00 0.00 38 1026.7
20260906202506 26 161 4.8 9.7 0.00 0.00 0.00 37 1026.7
20260906202002 25 194 11.3 12.9 0.00 0.00 0.00 38 1026.8
20260906201456 25 182 3.2 12.9 0.00 0.00 0.00 38 1026.8
20260906200956 24 225 6.4 12.9 0.00 0.00 0.00 39 1026.7
20260906200452 23 242 4.8 6.4 0.00 0.00 0.00 41 1027.2
20260906195952 25 214 3.2 9.7 0.00 0.00 0.00 38 1027.0
20260906195448 24 183 6.4 9.7 0.00 0.00 0.00 38 1027.2
20260906194944 24 207 9.7 9.7 0.00 0.00 0.00 39 1027.2
20260906194440 24 240 6.4 8.0 0.00 0.00 0.00 40 1027.1
20260906193935 24 180 8.0 19.3 0.00 0.00 0.00 39 1027.1
20260906193430 23 166 4.8 16.1 0.00 0.00 0.00 41 1027.1
20260906192926 25 214 6.4 16.1 0.00 0.00 0.00 36 1027.1
20260906192426 25 190 4.8 6.4 0.00 0.00 0.00 35 1027.0
20260906191925 25 211 4.8 9.7 0.00 0.00 0.00 36 1027.6
20260906191420 24 277 1.6 6.4 0.00 0.00 0.00 37 1027.1
20260906190919 25 158 9.7 9.7 0.00 0.00 0.00 35 1027.1
20260906190418 25 149 9.7 12.9 0.00 0.00 0.00 34 1027.1
20260906185919 24 141 8.0 11.3 0.00 0.00 0.00 32 1027.5
20260906185418 25 202 4.8 14.5 0.00 0.00 0.00 31 1027.2
20260906184917 25 165 6.4 12.9 0.00 0.00 0.00 32 1027.5
20260906184413 25 148 11.3 16.1 0.00 0.00 0.00 32 1027.5
20260906183908 25 178 8.0 9.7 0.00 0.00 0.00 34 1027.7
20260906183404 25 170 6.4 8.0 0.00 0.00 0.00 34 1027.7
20260906182859 25 194 6.4 11.3 0.00 0.00 0.00 34 1028.1
20260906182354 25 183 6.4 11.3 0.00 0.00 0.00 34 1028.0
20260906181849 25 221 3.2 12.9 0.00 0.00 0.00 37 1028.1
20260906181346 25 211 4.8 14.5 0.00 0.00 0.00 35 1028.1
20260906180841 24 243 4.8 9.7 0.00 0.00 0.00 37 1028.3
20260906180336 24 217 3.2 17.7 0.00 0.00 0.00 36 1028.3
20260906175833 24 158 8.0 16.1 0.00 0.00 0.00 36 1028.5
20260906175329 23 177 1.6 17.7 0.00 0.00 0.00 35 1028.4
20260906174828 23 12 0.0 8.0 0.00 0.00 0.00 41 1028.8
20260906174327 23 176 4.8 9.7 0.00 0.00 0.00 37 1028.5
20260906173822 23 159 8.0 12.9 0.00 0.00 0.00 38 1028.9
20260906173318 23 152 8.0 12.9 0.00 0.00 0.00 38 1028.8
20260906172817 23 217 3.2 12.9 0.00 0.00 0.00 38 1029.0
20260906172314 23 170 4.8 14.5 0.00 0.00 0.00 37 1029.2
20260906171814 23 188 3.2 6.4 0.00 0.00 0.00 40 1029.0
20260906171308 23 187 3.2 4.8 0.00 0.00 0.00 40 1029.4
20260906170804 22 27 1.6 6.4 0.00 0.00 0.00 43 1029.7
20260906170300 23 54 1.6 8.0 0.00 0.00 0.00 44 1029.4
20260906165756 22 209 4.8 8.0 0.00 0.00 0.00 42 1029.3
20260906165256 22 186 4.8 6.4 0.00 0.00 0.00 42 1029.4
20260906164756 22 205 3.2 8.0 0.00 0.00 0.00 42 1029.6
20260906164256 22 224 6.4 6.4 0.00 0.00 0.00 43 1029.6
20260906163751 22 218 3.2 6.4 0.00 0.00 0.00 42 1029.4
20260906163248 21 161 3.2 8.0 0.00 0.00 0.00 42 1029.8
20260906162745 21 175 4.8 4.8 0.00 0.00 0.00 45 1029.7
20260906162239 21 158 4.8 6.4 0.00 0.00 0.00 45 1029.4
20260906161739 20 200 3.2 6.4 0.00 0.00 0.00 48 1029.7
20260906161238 20 75 1.6 3.2 0.00 0.00 0.00 51 1029.6
20260906160738 20 293 0.0 3.2 0.00 0.00 0.00 53 1029.4
20260906160237 20 145 4.8 8.0 0.00 0.00 0.00 52 1029.6
20260906155734 19 166 4.8 9.7 0.00 0.00 0.00 51 1029.4
20260906155230 18 99 1.6 6.4 0.00 0.00 0.00 52 1029.4
20260906154725 18 138 0.0 6.4 0.00 0.00 0.00 56 1029.7
20260906154221 18 62 1.6 4.8 0.00 0.00 0.00 59 1029.4
20260906153719 17 67 3.2 6.4 0.00 0.00 0.00 57 1029.6
20260906153214 17 41 3.2 4.8 0.00 0.00 0.00 60 1029.7
20260906152709 16 126 1.6 4.8 0.00 0.00 0.00 63 1029.6
20260906152208 16 86 1.6 3.2 0.00 0.00 0.00 63 1029.6
20260906151703 16 70 0.0 3.2 0.00 0.00 0.00 62 1029.7
20260906151159 15 101 1.6 3.2 0.00 0.00 0.00 65 1029.4
20260906150654 15 88 1.6 3.2 0.00 0.00 0.00 64 1029.4
20260906150149 15 47 1.6 3.2 0.00 0.00 0.00 64 1029.7
20260906145648 15 81 3.2 4.8 0.00 0.00 0.00 66 1029.6
20260906145143 14 75 1.6 4.8 0.00 0.00 0.00 68 1029.7
20260906144637 13 65 3.2 4.8 0.00 0.00 0.00 67 1029.4
20260906144132 13 98 3.2 3.2 0.00 0.00 0.00 69 1029.6
20260906143632 13 96 1.6 3.2 0.00 0.00 0.00 71 1029.6
20260906143129 13 95 3.2 3.2 0.00 0.00 0.00 72 1029.3
20260906142628 12 95 3.2 6.4 0.00 0.00 0.00 75 1029.3
20260906142124 12 122 3.2 4.8 0.00 0.00 0.00 78 1029.3
20260906141622 12 121 3.2 4.8 0.00 0.00 0.00 80 1029.3
20260906141118 11 91 3.2 6.4 0.00 0.00 0.00 82 1029.2
20260906140617 11 80 6.4 6.4 0.00 0.00 0.00 86 1029.3
20260906140112 11 105 3.2 4.8 0.00 0.00 0.00 88 1029.2
20260906135609 10 78 3.2 6.4 0.00 0.00 0.00 92 1029.2
20260906135105 10 84 4.8 4.8 0.00 0.00 0.00 93 1029.0
20260906134600 9 86 4.8 6.4 0.00 0.00 0.00 94 1029.2
20260906134101 9 107 3.2 6.4 0.00 0.00 0.00 94 1029.3
20260906133556 9 99 4.8 6.4 0.00 0.00 0.00 94 1029.3
20260906133051 8 113 3.2 4.8 0.00 0.00 0.00 94 1029.3
20260906132547 8 112 4.8 8.0 0.00 0.00 0.00 95 1029.3
20260906132042 8 110 4.8 6.4 0.00 0.00 0.00 94 1028.9
20260906131537 8 101 6.4 8.0 0.00 0.00 0.00 94 1029.0
20260906131032 8 110 4.8 8.0 0.00 0.00 0.00 93 1028.7
20260906130532 8 110 6.4 6.4 0.00 0.00 0.00 93 1029.2
20260906130027 8 107 6.4 8.0 0.00 0.00 0.00 93 1028.9
20260906125525 8 106 4.8 6.4 0.00 0.00 0.00 93 1029.0
20260906125025 8 96 3.2 6.4 0.00 0.00 0.00 93 1029.2
20260906124520 8 110 6.4 8.0 0.00 0.00 0.00 93 1028.9
20260906124015 8 99 6.4 9.7 0.00 0.00 0.00 93 1028.9
20260906123514 8 101 6.4 8.0 0.00 0.00 0.00 93 1028.7
20260906123010 8 102 6.4 8.0 0.00 0.00 0.00 93 1028.8
20260906122503 8 104 6.4 8.0 0.00 0.00 0.00 94 1028.9
20260906122000 8 99 4.8 6.4 0.00 0.00 0.00 94 1028.9
20260906121456 8 108 6.4 6.4 0.00 0.00 0.00 94 1028.9
20260906120952 8 105 6.4 6.4 0.00 0.00 0.00 94 1029.2
20260906120447 8 88 4.8 8.0 0.00 0.00 0.00 94 1028.9
20260906115943 8 125 6.4 9.7 0.00 0.00 0.00 94 1029.0
20260906115438 8 111 4.8 8.0 0.00 0.00 0.00 94 1028.8
20260906114939 8 107 6.4 9.7 0.00 0.00 0.00 95 1028.9
20260906114438 8 113 6.4 8.0 0.00 0.00 0.00 95 1029.2
20260906113935 8 110 6.4 6.4 0.00 0.00 0.00 95 1028.9
20260906113433 8 116 4.8 6.4 0.00 0.00 0.00 95 1029.2
20260906112929 8 105 6.4 6.4 0.00 0.00 0.00 95 1028.8
20260906112424 8 108 4.8 8.0 0.00 0.00 0.00 95 1028.9
20260906111920 8 108 6.4 6.4 0.00 0.00 0.00 95 1028.8
20260906111419 8 114 6.4 8.0 0.00 0.00 0.00 95 1028.7
20260906110914 8 121 4.8 6.4 0.00 0.00 0.00 95 1029.0
20260906110409 8 117 4.8 6.4 0.00 0.00 0.00 95 1028.4
20260906105909 8 105 4.8 8.0 0.00 0.00 0.00 95 1028.8
20260906105404 8 117 4.8 6.4 0.00 0.00 0.00 95 1028.7
20260906104900 8 112 4.8 8.0 0.00 0.00 0.00 95 1028.7
20260906104358 8 122 3.2 6.4 0.00 0.00 0.00 95 1028.8
20260906103857 8 109 4.8 6.4 0.00 0.00 0.00 95 1028.5
20260906103356 8 111 4.8 6.4 0.00 0.00 0.00 95 1028.5
20260906102852 8 124 4.8 6.4 0.00 0.00 0.00 95 1028.8
20260906102351 8 108 6.4 6.4 0.00 0.00 0.00 96 1028.8
20260906101846 8 114 4.8 6.4 0.00 0.00 0.00 95 1028.5
20260906101341 8 105 4.8 6.4 0.00 0.00 0.00 95 1028.9
20260906100837 8 116 6.4 6.4 0.00 0.00 0.00 95 1029.0
20260906100336 8 126 6.4 8.0 0.00 0.00 0.00 95 1028.8
20260906095831 8 117 4.8 6.4 0.00 0.00 0.00 95 1028.8
20260906095327 8 147 8.0 8.0 0.00 0.00 0.00 96 1028.8
20260906094826 8 129 6.4 8.0 0.00 0.00 0.00 96 1028.5
20260906094321 8 128 6.4 8.0 0.00 0.00 0.00 96 1028.8
20260906093817 8 113 4.8 8.0 0.00 0.00 0.00 96 1028.8
20260906093313 8 113 4.8 6.4 0.00 0.00 0.00 96 1028.8
20260906092808 8 122 4.8 6.4 0.00 0.00 0.00 96 1029.2
20260906092308 8 117 6.4 8.0 0.00 0.00 0.00 96 1029.0
20260906091804 8 115 4.8 6.4 0.00 0.00 0.00 96 1028.9
20260906091300 8 125 4.8 6.4 0.00 0.00 0.00 96 1028.8
20260906090756 8 113 4.8 6.4 0.00 0.00 0.00 96 1029.0
20260906090255 8 130 4.8 6.4 0.00 0.00 0.00 97 1028.9
20260906085754 8 120 6.4 6.4 0.00 0.00 0.00 97 1028.8
20260906085253 8 120 4.8 6.4 0.00 0.00 0.00 97 1028.8
20260906084749 9 132 4.8 6.4 0.00 0.00 0.00 97 1028.8
20260906084248 9 133 6.4 6.4 0.00 0.00 0.00 97 1028.9
20260906083743 9 136 6.4 6.4 0.00 0.00 0.00 96 1029.0
20260906083239 9 137 6.4 6.4 0.00 0.00 0.00 97 1028.9
20260906082733 9 107 4.8 6.4 0.00 0.00 0.00 96 1029.0
20260906082228 9 115 3.2 6.4 0.00 0.00 0.00 96 1028.7
20260906081725 9 118 4.8 6.4 0.00 0.00 0.00 96 1028.7
20260906081219 9 125 6.4 6.4 0.00 0.00 0.00 96 1028.8
20260906080716 9 107 6.4 6.4 0.00 0.00 0.00 96 1028.9
20260906080212 9 113 6.4 6.4 0.00 0.00 0.00 96 1029.0
20260906075712 9 118 4.8 6.4 0.00 0.00 0.00 96 1029.3
20260906075206 9 113 4.8 6.4 0.00 0.00 0.00 96 1029.2
20260906074701 9 121 4.8 6.4 0.00 0.00 0.00 96 1029.2
20260906074201 10 122 4.8 6.4 0.00 0.00 0.00 96 1029.4
20260906073656 9 120 4.8 6.4 0.00 0.00 0.00 96 1029.0
20260906073151 9 131 6.4 6.4 0.00 0.00 0.00 96 1029.0
20260906072646 9 129 6.4 6.4 0.00 0.00 0.00 96 1029.2
20260906072142 9 122 4.8 8.0 0.00 0.00 0.00 96 1029.4
20260906071638 9 135 4.8 6.4 0.00 0.00 0.00 96 1029.0
20260906071138 9 117 4.8 6.4 0.00 0.00 0.00 96 1029.3
20260906070635 9 117 4.8 6.4 0.00 0.00 0.00 96 1029.2
20260906070130 9 112 3.2 6.4 0.00 0.00 0.00 96 1029.0
20260906065630 9 106 4.8 6.4 0.00 0.00 0.00 96 1029.3
20260906065125 9 114 4.8 6.4 0.00 0.00 0.00 96 1029.4
20260906064621 9 123 4.8 6.4 0.00 0.00 0.00 96 1029.2
20260906064121 9 88 4.8 4.8 0.00 0.00 0.00 96 1029.0
20260906063616 9 107 4.8 6.4 0.00 0.00 0.00 96 1029.2
20260906063112 10 124 4.8 6.4 0.00 0.00 0.00 95 1029.4
20260906062607 10 129 4.8 6.4 0.00 0.00 0.00 95 1029.4
20260906062106 10 112 3.2 4.8 0.00 0.00 0.00 95 1029.6
20260906061603 10 119 3.2 4.8 0.00 0.00 0.00 95 1029.7
20260906061102 10 109 3.2 4.8 0.00 0.00 0.00 95 1029.4
20260906060559 10 129 4.8 6.4 0.00 0.00 0.00 95 1029.7
20260906060056 10 113 3.2 3.2 0.00 0.00 0.00 95 1029.4
20260906055551 10 123 3.2 4.8 0.00 0.25 0.25 95 1029.3
20260906055046 10 130 4.8 4.8 0.00 0.25 0.25 95 1029.4
20260906054541 10 126 4.8 6.4 0.00 0.25 0.25 95 1029.8
20260906054036 10 121 4.8 4.8 0.00 0.25 0.25 94 1029.7
20260906053533 11 121 3.2 4.8 0.00 0.25 0.25 94 1029.6
20260906053028 11 109 1.6 3.2 0.00 0.25 0.25 94 1029.7
20260906052524 11 112 3.2 4.8 0.00 0.25 0.25 94 1029.7
20260906052021 11 115 3.2 4.8 0.00 0.25 0.25 94 1029.8
20260906051516 11 131 3.2 6.4 0.00 0.25 0.25 94 1030.1
20260906051011 11 129 3.2 6.4 0.00 0.25 0.25 93 1029.8
20260906050512 11 131 4.8 6.4 0.00 0.25 0.25 93 1030.1
20260906050006 12 125 3.2 6.4 0.00 0.25 0.25 93 1030.0
20260906045504 12 135 4.8 4.8 0.00 0.25 0.25 93 1030.0
20260906045000 12 132 3.2 4.8 0.00 0.25 0.25 93 1030.1
20260906044455 12 133 4.8 6.4 0.00 0.25 0.25 92 1030.3
20260906043951 12 142 6.4 6.4 0.00 0.25 0.25 92 1030.3
20260906043447 12 147 4.8 6.4 0.00 0.25 0.25 91 1030.1
20260906042943 12 108 1.6 4.8 0.05 0.25 0.25 91 1030.3
20260906042442 12 89 6.4 6.4 0.05 0.25 0.25 89 1030.3
20260906041942 13 120 3.2 4.8 0.05 0.25 0.25 87 1030.2
20260906041438 13 99 4.8 4.8 0.05 0.25 0.25 85 1030.3
20260906040937 13 126 3.2 4.8 0.97 0.23 0.23 77 1030.3
20260906040433 15 46 4.8 6.4 1.45 0.23 0.23 72 1030.3
20260906035928 17 329 0.0 8.0 0.48 0.08 0.08 64 1030.0
20260906035429 17 271 4.8 6.4 0.00 0.00 0.00 46 1029.7
20260906034924 17 312 4.8 4.8 0.00 0.00 0.00 46 1029.2
20260906034419 16 219 0.0 6.4 0.00 0.00 0.00 47 1029.3
20260906033915 15 70 3.2 3.2 0.00 0.00 0.00 50 1029.2
20260906033415 15 94 1.6 3.2 0.00 0.00 0.00 50 1029.3
20260906032910 15 95 3.2 4.8 0.00 0.00 0.00 50 1029.2
20260906032407 15 112 3.2 3.2 0.00 0.00 0.00 51 1028.9
20260906031907 15 92 3.2 3.2 0.00 0.00 0.00 48 1028.9
20260906031402 16 101 3.2 3.2 0.00 0.00 0.00 49 1029.2
20260906030857 16 89 3.2 3.2 0.00 0.00 0.00 49 1028.9
20260906030353 15 86 3.2 4.8 0.00 0.00 0.00 49 1028.7
20260906025852 15 116 3.2 4.8 0.00 0.00 0.00 50 1028.8
20260906025346 15 121 3.2 4.8 0.00 0.00 0.00 51 1028.8
20260906024845 15 104 3.2 3.2 0.00 0.00 0.00 50 1028.7
20260906024345 15 109 3.2 4.8 0.00 0.00 0.00 49 1028.4
20260906023840 15 130 4.8 4.8 0.00 0.00 0.00 50 1028.4
20260906023336 15 104 4.8 4.8 0.00 0.00 0.00 50 1028.5
20260906022831 15 108 4.8 4.8 0.00 0.00 0.00 51 1028.7
20260906022326 15 107 3.2 4.8 0.00 0.00 0.00 50 1028.7
20260906021822 15 103 3.2 6.4 0.00 0.00 0.00 50 1028.8
20260906021321 15 105 3.2 4.8 0.00 0.00 0.00 48 1028.3
20260906020816 15 111 3.2 4.8 0.00 0.00 0.00 48 1028.4
20260906020316 15 127 3.2 4.8 0.00 0.00 0.00 49 1028.4
20260906015816 15 129 4.8 4.8 0.00 0.00 0.00 48 1028.0
20260906015314 16 127 3.2 3.2 0.00 0.00 0.00 48 1028.5
20260906014809 16 89 1.6 3.2 0.00 0.00 0.00 47 1028.1
20260906014304 16 120 3.2 3.2 0.00 0.00 0.00 47 1028.3
20260906013801 16 114 3.2 3.2 0.00 0.00 0.00 46 1028.1
20260906013301 17 137 4.8 4.8 0.00 0.00 0.00 45 1028.1
20260906012756 17 130 3.2 3.2 0.00 0.00 0.00 45 1028.0
20260906012251 17 113 1.6 3.2 0.00 0.00 0.00 45 1027.9
20260906011746 18 140 3.2 4.8 0.00 0.00 0.00 45 1028.0
20260906011246 18 125 3.2 3.2 0.00 0.00 0.00 43 1028.0
20260906010742 18 130 3.2 4.8 0.00 0.00 0.00 42 1028.4
20260906010238 18 147 3.2 3.2 0.00 0.00 0.00 43 1028.0
20260906005733 19 150 3.2 3.2 0.00 0.00 0.00 41 1028.1
20260906005232 19 138 3.2 3.2 0.00 0.00 0.00 41 1028.1
20260906004731 20 105 3.2 3.2 0.00 0.00 0.00 40 1028.1
20260906004227 20 151 3.2 4.8 0.00 0.00 0.00 40 1027.9
20260906003722 20 94 0.0 3.2 0.00 0.00 0.00 40 1027.9
20260906003217 21 133 3.2 3.2 0.00 0.00 0.00 39 1028.0
20260906002717 21 121 3.2 3.2 0.00 0.00 0.00 38 1028.0
20260906002212 22 159 3.2 4.8 0.00 0.00 0.00 34 1028.1
20260906001707 22 164 0.0 3.2 0.00 0.00 0.00 34 1028.3
20260906001207 22 76 0.0 1.6 0.00 0.00 0.00 33 1028.1
20260906000703 23 191 0.0 4.8 0.00 0.00 0.00 31 1028.0
20260906000158 23 233 3.2 4.8 0.00 0.00 0.00 33 1027.9
20260905235657 23 205 3.2 4.8 0.00 0.00 0.00 31 1027.9
20260905235152 23 280 1.6 4.8 0.00 0.00 0.00 32 1028.0
20260905234647 23 155 3.2 4.8 0.00 0.00 0.00 30 1027.7
20260905234143 23 226 3.2 3.2 0.00 0.00 0.00 33 1027.7
20260905233638 23 237 3.2 6.4 0.00 0.00 0.00 30 1027.7
20260905233137 23 189 3.2 6.4 0.00 0.00 0.00 31 1027.9
20260905232633 23 220 3.2 6.4 0.00 0.00 0.00 31 1027.6
20260905232128 22 147 3.2 4.8 0.00 0.00 0.00 33 1028.0
20260905231623 22 160 3.2 4.8 0.00 0.00 0.00 32 1027.5